Find Starlink 32007

NORAD ID: 60094 Int'l Des: 2024-117 Owner: SPXS Country: US Constellation: starlink operational
LEOCIRCULAR

Current View

Loading 3D Globe...

About Starlink 32007

Starlink 32007 (NORAD 60094) is a starlink constellation satellite (v2 mini) launched Jun 23, 2024 by SPXS of US. It operates in LEO, CIRCULAR orbit with a mass of 730.00 kg.

Upcoming Passes

Passes for default location (London). Set your location on the main map for personalized predictions.

Altitude History

Loading altitude history...

Two-Line Element Set

1 60094U 24117D 26264.54247231 -.00002270 00000-0 -56130-4 0 9994
2 60094 53.1617 204.4892 0001393 90.2202 269.8960 15.34371932126911
Epoch: Sep 21, 2026 • Age: 19 hours

Current Status

Altitude 468.4 km
Apogee / Perigee N/A
Velocity 7.64 km/s
Sub-Earth Point 53.28°N, 169.65°E
Launch Date Jun 23, 2024
Age 2.2 years
Type internet

Technical Details

Classification Payload
Mass 730.00 kg
Dry Mass 700.00 kg
Length 0.30 m
Span 29.00 m
Shape ? Box + pan
Manufacturer SPXS
Bus Type Starlink V2M
Phase Status In Orbit
Owner/State SPXS/US

Most Searched